Location: Newark
(23.5328°S, 46.7919°W)
Time: 11:19:26
(UTC+00:00)

ISS - Pass Details

Date: 11 March 2021
Orbit: 418 x 422 km, 51.6° (Epoch: 17 April)

Event Time Altitude Azimuth Distance (km) Brightness Sun altitude
Rises 21:53:27 0° 234° (SW) 2,388 1.3 -7.0°
Reaches altitude 10° 21:55:44 10° 245° (WSW) 1,516 0.5 -7.5°
Maximum altitude 21:58:43 28° 306° (NW) 824 -1.7 -8.2°
Drops below altitude 10° 22:01:39 10° 7° (N) 1,498 -1.1 -8.8°
Sets 22:03:55 0° 19° (NNE) 2,353 -0.2 -9.4°
